[[{"header":{"parameterUnit":"m.s-1","parameterCategory":1,"la1":30.2991,"la2":30.254,"lo1":-89.0895,"lo2":-89.0444,"dy":0.0017,"dx":0.0017,"nx":28,"ny":28,"refTime":"2023-08-12T21:00:00:Z","depth":0,"parameterNumber":2,"parameterNumberName":"U-component_of_WINDS"},"data":[0,0,0,0,0,0,0,0,0,0,0,0,0,0,0,0,0,0,0,0,0,0,0,0,0,0,0,0,0,0,0,0,0,0,0,0,0,0,0,0,0,0,0,0,0,0,0,0,0,0,0,0,0,0,0,0,0,0,3.6548,3.6549,0,3.6619,3.6619,3.662,3.6562,3.6559,3.6557,3.6554,3.6625,3.6629,3.6633,0,0,0,0,0,0,0,0,0,0,0,0,0,3.636,3.6364,3.6548,3.6549,3.655,3.6618,3.6619,3.662,3.6562,3.6559,3.6556,3.6553,3.6624,3.6628,3.6633,0,0,0,0,0,0,0,0,0,0,0,0,0,3.6437,3.6365,3.6548,3.6529,3.6528,3.6618,3.6619,3.6621,3.6563,3.6559,3.6555,3.6552,3.6622,3.6628,3.6634,3.6746,0,0,3.6653,3.6656,0,0,0,0,0,0,0,0,3.6433,3.6444,3.6531,3.6531,3.653,3.6578,3.6579,3.6663,3.6563,3.655,3.6554,3.655,3.6612,3.6619,3.664,3.675,3.6753,3.6654,3.6658,3.666,3.6662,0,0,0,0,0,0,0,3.6428,3.6441,3.6576,3.6532,3.6532,3.6516,3.6523,3.6594,3.66,3.655,3.6546,3.6556,3.6611,3.6634,3.6641,3.6754,3.6654,3.6659,3.6663,3.6665,3.6953,3.6957,0,0,0,0,0,0,3.6424,3.6437,3.6574,3.6578,3.6471,3.6522,3.653,3.6566,3.66,3.6601,3.6559,3.6553,3.6625,3.6634,3.6644,3.6773,3.666,3.6666,3.667,3.695,3.6954,3.6959,0,0,0,0,0,0,3.6421,3.6437,3.6571,3.6506,3.6522,3.6529,3.657,3.6569,3.6592,3.6606,3.6606,3.6581,3.6623,3.6635,3.672,3.6775,3.6669,3.6675,3.6945,3.6951,3.6956,3.7036,0,0,0,0,0,0,3.6416,3.6436,3.648,3.6508,3.6526,3.6648,3.6574,3.6573,3.6603,3.6596,3.6627,3.6629,3.6621,3.6711,3.6726,3.6782,3.6679,3.694,3.6948,3.6955,3.7028,3.7044,3.7057,0,0,0,0,0,3.6409,3.65,3.6483,3.6499,3.6581,3.6651,3.6661,3.665,3.6608,3.6651,3.6659,3.6628,3.6767,3.672,3.6737,3.6795,3.6936,3.6946,3.6954,3.7022,3.7041,3.7057,0,0,0,0,0,0,3.6479,3.6504,3.6484,3.6588,3.6618,3.6641,3.6695,3.6671,3.6714,3.6705,3.669,3.6697,3.6786,3.68,3.6747,3.6903,3.6845,3.6857,3.6891,3.6909,3.6923,3.6916,3.6685,0,0,0,0,0,3.6507,3.6563,3.6581,3.667,3.6686,3.6688,3.6719,3.6707,3.6738,3.675,3.6764,3.6794,3.6844,3.6878,3.6925,3.7031,3.7034,3.7079,3.7093,3.7104,3.7114,3.7167,3.7186,3.6987,3.6987,3.6987,0,0,3.6564,3.6584,3.6621,3.6685,3.6707,3.6763,3.6699,3.6763,3.6803,3.676,3.684,3.6852,3.6884,3.6979,3.7021,3.6992,3.717,3.7116,3.7125,3.7129,3.7178,3.7197,3.7213,3.6993,3.6992,3.6991,0,0,3.6696,3.6719,3.6794,3.6817,3.685,3.6851,3.6869,3.6895,3.6901,3.6982,3.6948,3.6997,3.7085,3.7107,3.7131,3.7269,3.724,3.7285,3.7358,3.741,3.7425,3.7439,3.7484,3.7501,3.7295,3.7296,3.7296,0,3.6763,3.6848,3.6835,3.69,3.6927,3.689,3.6963,3.6986,3.7034,3.7053,3.702,3.7127,3.7146,3.7244,3.7277,3.7299,3.7316,3.728,3.7424,3.7438,3.745,3.7493,3.7511,3.73,3.73,3.7299,3.7299,0,3.6926,3.6985,3.7041,3.7086,3.712,3.719,3.7186,3.7222,3.7207,3.721,3.7291,3.7313,3.7361,3.7384,3.7372,3.7479,3.746,3.7427,3.7367,3.7474,3.7514,3.7531,3.7307,3.7306,3.7304,3.7303,0,0,3.7104,3.714,3.7161,3.7179,3.7212,3.7257,3.7323,3.7371,3.74,3.7434,3.7487,3.756,3.7528,3.7555,3.7544,3.759,3.7692,3.755,3.755,3.7572,3.7808,3.783,3.785,3.7675,3.7678,3.7681,3.7804,0,3.7235,3.735,3.7339,3.7448,3.7499,3.7464,3.7521,3.7546,3.7551,3.7594,3.7599,3.765,3.7606,3.7621,3.7665,3.7671,3.7739,3.7662,3.7721,3.7723,3.7711,3.7871,3.7896,3.8011,3.782,3.7822,3.7824,0,3.7403,3.7441,3.7554,3.7576,3.7597,3.7649,3.7689,3.7733,3.776,3.7759,3.7788,3.7768,3.7832,3.7774,3.786,3.7808,3.7831,3.7838,3.7842,3.7844,3.7778,3.7875,3.8048,3.8064,3.785,3.7848,3.7846,0,3.7516,3.7596,3.7673,3.7691,3.7719,3.7755,3.7769,3.7793,3.7821,3.7856,3.7873,3.7917,3.7939,3.7972,3.7964,3.7923,3.8051,3.7993,3.805,3.805,3.8076,3.8074,3.8252,3.8098,3.8097,3.8097,3.8097,0,3.7662,3.7731,3.7724,3.7771,3.7847,3.7833,3.7909,3.7918,3.7938,3.7985,3.7958,3.8002,3.799,3.8033,3.8027,3.8097,3.8109,3.8108,3.8105,3.8109,3.8108,3.8121,3.8112,3.8102,3.8101,3.81,3.8099,0,3.7801,3.7799,3.788,3.7899,3.7906,3.796,3.7976,3.802,3.8021,3.808,3.8093,3.8096,3.8144,3.814,3.8196,3.8191,3.8277,3.8266,3.8267,3.8263,3.8319,3.8313,3.851,3.8533,3.8367,3.8369,3.837,0,3.7892,3.7944,3.7969,3.7997,3.8013,3.8061,3.8088,3.8077,3.8107,3.814,3.8178,3.8224,3.826,3.834,3.8346,3.8387,3.8375,3.8441,3.8381,3.8381,3.8371,3.8366,3.837,3.8452,3.8454,3.8455,3.8457,0,3.8052,3.8048,3.8089,3.8129,3.8163,3.8194,3.8223,3.8248,3.8239,3.8273,3.8322,3.835,3.8406,3.8451,3.8489,3.8501,3.8477,3.8476,3.849,3.8493,3.849,3.8488,3.8295,3.8471,3.8469,3.8468,3.8468,3.8467,3.8167,3.821,3.8233,3.8279,3.8299,3.8325,3.8365,3.8371,3.8412,3.8456,3.8447,3.8501,3.8524,3.8573,3.8589,3.863,3.8606,3.8628,3.8633,3.8638,3.8642,3.8486,3.8638,3.8637,3.8637,3.8636,3.8636,0,3.8322,3.8335,3.8377,3.8417,3.8452,3.8426,3.8455,3.8486,3.8534,3.8558,3.8593,3.8648,3.8691,3.8699,3.874,3.8771,3.876,3.8781,3.8777,3.8779,3.8664,3.8645,3.8789,3.8789,3.8789,3.8789,3.8789,3.8789,3.8407,3.8477,3.8476,3.8554,3.8566,3.8619,3.8637,3.866,3.8678,3.874,3.8775,3.8781,3.8797,3.8838,3.8875,3.8877,3.8891,3.8916,3.8913,3.8804,3.8788,3.8774,3.8756,3.892,3.8921,3.9024,3.9025,3.9026]},{"header":{"parameterUnit":"m.s-1","parameterCategory":1,"la1":30.2991,"la2":30.254,"lo1":-89.0895,"lo2":-89.0444,"dy":0.0017,"dx":0.0017,"nx":28,"ny":28,"refTime":"2023-08-12T21:00:00:Z","depth":0,"parameterNumber":3,"parameterNumberName":"V-component_of_WINDS"},"data":[0,0,0,0,0,0,0,0,0,0,0,0,0,0,0,0,0,0,0,0,0,0,0,0,0,0,0,0,0,0,0,0,0,0,0,0,0,0,0,0,0,0,0,0,0,0,0,0,0,0,0,0,0,0,0,0,0,0,2.4119,2.412,0,2.4209,2.421,2.4211,2.4205,2.4204,2.4203,2.4202,2.4291,2.4295,2.4298,0,0,0,0,0,0,0,0,0,0,0,0,0,2.394,2.3943,2.4119,2.412,2.4121,2.4209,2.421,2.4211,2.4206,2.4204,2.4202,2.4201,2.429,2.4294,2.4299,0,0,0,0,0,0,0,0,0,0,0,0,0,2.4022,2.3944,2.4119,2.4129,2.4131,2.4208,2.421,2.4211,2.4206,2.4204,2.4202,2.42,2.4289,2.4294,2.4299,2.4372,0,0,2.4316,2.4318,0,0,0,0,0,0,0,0,2.4018,2.4029,2.4126,2.4129,2.4131,2.4194,2.418,2.4265,2.4206,2.4177,2.4202,2.4199,2.426,2.4268,2.4289,2.4376,2.438,2.4316,2.432,2.4322,2.4323,0,0,0,0,0,0,0,2.4012,2.4025,2.4154,2.4128,2.4131,2.4128,2.4138,2.4196,2.4229,2.418,2.418,2.419,2.4261,2.4284,2.4291,2.4381,2.4316,2.4321,2.4324,2.4326,2.4529,2.4531,0,0,0,0,0,0,2.4004,2.402,2.4152,2.4157,2.4068,2.4133,2.4144,2.4176,2.4228,2.4234,2.4192,2.419,2.4276,2.4285,2.4294,2.4381,2.4322,2.4327,2.433,2.4527,2.453,2.4532,0,0,0,0,0,0,2.4001,2.4016,2.4148,2.4089,2.4105,2.4138,2.4174,2.4178,2.4201,2.4237,2.4243,2.4209,2.4274,2.4287,2.4352,2.4384,2.4329,2.4334,2.4525,2.4528,2.4531,2.4556,0,0,0,0,0,0,2.3996,2.4015,2.4044,2.409,2.4109,2.4205,2.4176,2.4182,2.4211,2.4209,2.4255,2.4261,2.4274,2.4344,2.4358,2.4391,2.4339,2.4522,2.4526,2.453,2.4552,2.456,2.4566,0,0,0,0,0,2.3989,2.4047,2.4045,2.4061,2.4145,2.4207,2.4218,2.4233,2.4213,2.4242,2.4265,2.4259,2.4378,2.4351,2.4366,2.4401,2.452,2.4525,2.453,2.4549,2.4558,2.4566,0,0,0,0,0,0,2.4004,2.4053,2.4052,2.4126,2.4163,2.4206,2.4243,2.4242,2.4284,2.428,2.4295,2.4306,2.4371,2.4393,2.4361,2.4473,2.4447,2.4455,2.4456,2.4465,2.4472,2.4465,2.4343,0,0,0,0,0,2.4016,2.4063,2.4103,2.4165,2.4184,2.421,2.4238,2.4245,2.4283,2.4299,2.4326,2.4363,2.4408,2.4438,2.4482,2.4555,2.4565,2.4587,2.4593,2.4599,2.4605,2.4644,2.4654,2.4548,2.4548,2.4548,0,0,2.4041,2.4074,2.4103,2.4169,2.4198,2.4245,2.4223,2.4275,2.4309,2.4306,2.437,2.4391,2.4433,2.4502,2.4534,2.4522,2.4637,2.4605,2.4609,2.4613,2.465,2.466,2.4669,2.4551,2.4551,2.455,0,0,2.4111,2.4141,2.4195,2.4225,2.4269,2.4286,2.4299,2.4342,2.4357,2.4421,2.4419,2.446,2.4538,2.4567,2.4592,2.4671,2.4667,2.4685,2.472,2.4757,2.4766,2.4773,2.48,2.481,2.4692,2.4692,2.4692,0,2.4137,2.4209,2.4223,2.4275,2.4303,2.4303,2.4357,2.4384,2.444,2.4459,2.4445,2.4542,2.457,2.4646,2.4665,2.4685,2.4699,2.468,2.4764,2.4771,2.4778,2.4804,2.4814,2.4693,2.4693,2.4693,2.4693,0,2.4237,2.4287,2.4325,2.4379,2.4412,2.4465,2.4486,2.4517,2.4521,2.4539,2.4603,2.4637,2.4686,2.4705,2.471,2.4781,2.4772,2.476,2.4734,2.479,2.4814,2.4824,2.4696,2.4695,2.4695,2.4694,0,0,2.432,2.438,2.4394,2.4418,2.4466,2.4504,2.4556,2.4605,2.463,2.4669,2.4711,2.4777,2.4766,2.4795,2.4803,2.4836,2.4894,2.482,2.4821,2.4832,2.4972,2.498,2.4991,2.4892,2.4894,2.4895,2.4968,0,2.4394,2.4486,2.45,2.4581,2.4626,2.4625,2.467,2.4703,2.4721,2.4761,2.478,2.4826,2.4809,2.4826,2.4859,2.488,2.4922,2.4875,2.493,2.4932,2.492,2.5004,2.5013,2.508,2.4978,2.498,2.4981,0,2.4493,2.4534,2.4619,2.4659,2.4679,2.4719,2.4764,2.4802,2.484,2.485,2.4881,2.4884,2.4936,2.4908,2.4979,2.4946,2.497,2.4983,2.4986,2.4992,2.496,2.5011,2.5102,2.5112,2.4996,2.4995,2.4994,0,2.4543,2.4619,2.468,2.47,2.4749,2.4777,2.4798,2.4834,2.4862,2.4901,2.4919,2.4963,2.4987,2.5021,2.5036,2.5014,2.5105,2.5079,2.5114,2.5114,2.5133,2.5132,2.5228,2.5149,2.5149,2.5149,2.5149,0,2.4624,2.4676,2.4703,2.474,2.4797,2.4812,2.4868,2.4888,2.4919,2.4959,2.4961,2.4999,2.5016,2.5056,2.5068,2.5124,2.5135,2.5144,2.5146,2.5143,2.5142,2.5158,2.5154,2.5152,2.5151,2.5151,2.515,0,2.469,2.471,2.4776,2.4816,2.4827,2.4868,2.4902,2.4937,2.4954,2.5004,2.5017,2.5043,2.509,2.5108,2.5165,2.5173,2.5237,2.5236,2.5224,2.5225,2.5259,2.5255,2.5369,2.5384,2.5296,2.5297,2.5298,0,2.474,2.478,2.4824,2.4851,2.4873,2.4917,2.4945,2.4961,2.499,2.5034,2.5064,2.511,2.5148,2.5222,2.5246,2.5289,2.5289,2.5326,2.5295,2.529,2.5288,2.5285,2.5288,2.5331,2.5332,2.5333,2.5333,0,2.4826,2.4833,2.4875,2.4919,2.4953,2.4988,2.5023,2.5045,2.5065,2.5097,2.5145,2.5175,2.5232,2.5278,2.5322,2.5343,2.5341,2.5343,2.5353,2.535,2.5341,2.5345,2.5239,2.534,2.5339,2.5339,2.5338,2.5338,2.4885,2.4919,2.4955,2.5001,2.5028,2.506,2.5095,2.5116,2.5156,2.5204,2.521,2.5261,2.5295,2.5354,2.5377,2.5416,2.5406,2.5421,2.5425,2.5428,2.543,2.5336,2.5424,2.5424,2.5424,2.5424,2.5424,0,2.497,2.4993,2.5034,2.5082,2.5117,2.5113,2.515,2.518,2.5225,2.5257,2.5294,2.5348,2.5392,2.5418,2.5462,2.5488,2.5488,2.5499,2.5497,2.5501,2.5437,2.5423,2.5498,2.5498,2.5498,2.5498,2.5498,2.5498,2.5018,2.5076,2.5088,2.5158,2.5181,2.5231,2.5252,2.5281,2.5307,2.5367,2.5404,2.5421,2.545,2.5496,2.5535,2.5542,2.5557,2.5569,2.5574,2.5514,2.5506,2.5499,2.5486,2.5572,2.5572,2.5635,2.5636,2.5636]}]]